TimeMDT,TemperatureF,Dew PointF,Humidity,Sea Level PressureIn,VisibilityMPH,Wind Direction,Wind SpeedMPH,Gust SpeedMPH,PrecipitationIn,Events,Conditions,WindDirDegrees,DateUTC
12:24 AM,57.2,55.4,94,29.87,5.0,SSE,8.1,-,0.06,Rain,Rain,150,2013-05-18 06:24:00
12:53 AM,57.0,55.0,93,29.78,10.0,SE,12.7,-,0.08,Rain,Light Rain,140,2013-05-18 06:53:00
1:53 AM,57.0,54.0,89,29.72,10.0,NE,11.5,-,0.01,,Partly Cloudy,50,2013-05-18 07:53:00
2:00 AM,57.2,53.6,88,29.77,10.0,NE,9.2,-,N/A,,Clear,50,2013-05-18 08:00:00
2:53 AM,55.9,54.0,93,29.73,10.0,NE,13.8,-,N/A,,Partly Cloudy,40,2013-05-18 08:53:00
3:37 AM,55.4,53.6,94,29.82,10.0,Calm,Calm,-,N/A,,Mostly Cloudy,0,2013-05-18 09:37:00
3:44 AM,55.4,53.6,94,29.82,10.0,Calm,Calm,-,N/A,,Scattered Clouds,0,2013-05-18 09:44:00
3:53 AM,55.0,54.0,96,29.79,10.0,Calm,Calm,-,N/A,,Mostly Cloudy,0,2013-05-18 09:53:00
4:17 AM,53.6,51.8,94,29.83,1.8,Calm,Calm,-,N/A,,Mostly Cloudy,0,2013-05-18 10:17:00
4:27 AM,51.8,51.8,100,29.82,0.5,Calm,Calm,-,N/A,Fog,Fog,0,2013-05-18 10:27:00
4:31 AM,51.8,51.8,100,29.82,0.2,NNW,4.6,-,N/A,Fog,Fog,340,2013-05-18 10:31:00
4:53 AM,51.1,50.0,96,29.79,0.2,NNW,3.5,-,N/A,Fog,Fog,340,2013-05-18 10:53:00
5:05 AM,51.8,48.2,88,29.82,0.5,North,3.5,-,N/A,Fog,Fog,10,2013-05-18 11:05:00
5:15 AM,51.8,50.0,94,29.82,0.2,Calm,Calm,-,N/A,Fog,Fog,0,2013-05-18 11:15:00
5:23 AM,51.8,51.8,100,29.83,0.2,Calm,Calm,-,N/A,Fog,Fog,0,2013-05-18 11:23:00
5:53 AM,48.0,46.9,96,29.81,0.5,WSW,3.5,-,N/A,Fog,Fog,250,2013-05-18 11:53:00
6:02 AM,50.0,48.2,94,29.84,0.2,Calm,Calm,-,N/A,Fog,Fog,0,2013-05-18 12:02:00
6:53 AM,51.1,51.1,100,29.80,0.2,Calm,Calm,-,N/A,Fog,Fog,0,2013-05-18 12:53:00
7:03 AM,51.8,51.8,100,29.83,1.2,Calm,Calm,-,N/A,,Mostly Cloudy,0,2013-05-18 13:03:00
7:08 AM,53.6,53.6,100,29.82,7.0,Calm,Calm,-,N/A,,Scattered Clouds,0,2013-05-18 13:08:00
7:53 AM,55.9,54.0,93,29.83,10.0,Calm,Calm,-,N/A,,Scattered Clouds,0,2013-05-18 13:53:00
8:53 AM,60.1,55.0,83,29.83,10.0,SSW,4.6,-,N/A,,Mostly Cloudy,210,2013-05-18 14:53:00
9:31 AM,62.6,55.4,77,29.84,10.0,Calm,Calm,-,N/A,,Mostly Cloudy,0,2013-05-18 15:31:00
9:40 AM,62.6,55.4,77,29.84,10.0,West,3.5,-,N/A,,Mostly Cloudy,260,2013-05-18 15:40:00
9:53 AM,63.0,57.0,81,29.81,10.0,Variable,5.8,-,N/A,,Scattered Clouds,0,2013-05-18 15:53:00
10:05 AM,64.4,55.4,73,29.84,10.0,North,4.6,-,N/A,,Mostly Cloudy,350,2013-05-18 16:05:00
10:27 AM,64.4,55.4,73,29.84,10.0,Calm,Calm,-,N/A,,Scattered Clouds,0,2013-05-18 16:27:00
10:35 AM,66.2,55.4,68,29.83,10.0,Variable,4.6,-,N/A,,Mostly Cloudy,0,2013-05-18 16:35:00
10:50 AM,66.2,57.2,73,29.83,10.0,Calm,Calm,-,N/A,,Scattered Clouds,0,2013-05-18 16:50:00
10:53 AM,66.9,57.0,70,29.81,10.0,Variable,3.5,-,N/A,,Scattered Clouds,0,2013-05-18 16:53:00
11:53 AM,69.1,54.0,58,29.79,10.0,ESE,3.5,-,N/A,,Partly Cloudy,110,2013-05-18 17:53:00
1:53 PM,73.9,55.0,52,29.76,10.0,Variable,5.8,-,N/A,,Mostly Cloudy,0,2013-05-18 19:53:00
2:34 PM,68.0,57.2,68,29.81,5.0,ESE,8.1,-,0.03,Rain-Thunderstorm,Light Thunderstorms and Rain,110,2013-05-18 20:34:00
2:53 PM,66.0,57.9,75,29.78,10.0,NE,6.9,-,0.04,Rain-Thunderstorm,Light Thunderstorms and Rain,50,2013-05-18 20:53:00
3:16 PM,64.4,57.2,77,29.80,10.0,NNE,10.4,-,0.00,Thunderstorm,Overcast,30,2013-05-18 21:16:00
3:53 PM,64.9,57.9,78,29.78,10.0,NNE,10.4,-,0.00,Rain-Thunderstorm,Light Thunderstorms and Rain,20,2013-05-18 21:53:00
4:26 PM,66.2,60.8,83,29.79,10.0,NE,11.5,-,0.02,,Mostly Cloudy,50,2013-05-18 22:26:00
4:53 PM,66.9,60.1,79,29.79,10.0,ENE,5.8,-,0.02,,Clear,60,2013-05-18 22:53:00
5:53 PM,66.9,57.0,70,29.75,10.0,ENE,13.8,-,N/A,,Clear,60,2013-05-18 23:53:00
6:53 PM,64.0,57.9,80,29.71,10.0,NE,13.8,-,N/A,,Clear,40,2013-05-19 00:53:00
7:53 PM,61.0,55.0,81,29.75,10.0,ENE,8.1,-,N/A,,Clear,70,2013-05-19 01:53:00
8:53 PM,59.0,55.9,90,29.76,10.0,East,9.2,-,N/A,,Clear,80,2013-05-19 02:53:00
10:53 PM,57.0,53.1,87,29.72,10.0,NE,12.7,-,N/A,,Clear,40,2013-05-19 04:53:00
11:53 PM,57.0,55.0,93,29.71,10.0,NE,12.7,-,N/A,,Clear,40,2013-05-19 05:53:00